{"data":{"norad_id":40011,"intl_designator":"2014-033B","name":"HODOYOSHI-4","alt_names":[],"object_type":"PAYLOAD","status":"ACTIVE","operator":null,"country":"JPN","launch_date":"2014-06-19","launch_site_code":"DLS","launch_vehicle":null,"mission":null,"orbit_class":"UNKNOWN","rcs_meters":0.466,"size_class":null,"mass_kg":null,"dimensions":null,"purposes":["earth_obs"],"wikipedia_slug":null,"has_3d_model":false,"image_url":null,"decayed_at":null,"tle_current":{"epoch":"2026-09-20T04:08:25.345248Z","epoch_age_seconds":42814,"freshness":"FRESH","line1":"1 40011U 14033B   26263.17251557  .00000278  00000+0  35602-4 0  9995","line2":"2 40011  97.5486  83.4478 0023576 354.3733   5.7216 14.88315095662933","mean_motion":14.88315095,"eccentricity":0.0023576,"inclination_deg":97.5486,"raan_deg":83.4478,"arg_perigee_deg":354.3733,"mean_anomaly_deg":5.7216,"bstar":3.5602e-5,"rev_number":66293,"period_min":96.753705236054,"perigee_km":586.74049591976,"apogee_km":619.6588947055,"semimajor_km":6981.3366953126,"source":"CELESTRAK","updated_at":"2026-09-20T09:00:33.896950Z"}}}